User: anonymous   Login
Location: Unspecified
(0.0000°N, 0.0000°E)
Time: 06:38:24
(UTC+02:00)
Language:

SJ-6B - Orbit

View from above orbital plane
View from above orbital plane
View from above satellite
View from above satellite

Ground track
Ground track

The orbit data is extracted from the following two-line orbital elements,

1 28415U 04035C   15187.77752531  .00002689  00000-0  18942-3 0  9993
2 28415 097.7946 200.3081 0054560 013.7711 346.4988 15.04719802591530
Epoch (UTC): 06 July 2015 18:39:38
Eccentricity: 0.0054560
inclination: 97.7946°
perigee height: 514 km
apogee height: 590 km
right ascension of ascending node: 200.3081°
argument of perigee: 13.7711°
revolutions per day: 15.04719802
mean anomaly at epoch: 346.4988°
orbit number at epoch: 59153

The dashed part of the orbit path shows where the satellite is in the earth's shadow,  

DLR